Location: Newark
(13.6797°N, 8.5297°E)
Time: 15:12:55
(UTC+00:00)

LightSail 2 - Pass Details

Date: 15 December 2019
Orbit: 704 x 720 km, 24.0° (Epoch: 21 January)

Event Time Altitude Azimuth Distance (km) Brightness Sun altitude
Rises 18:15:06 0° 274° (W) 3,097 9.7 -17.6°
Reaches altitude 10° 18:17:55 10° 260° (W) 2,175 8.9 -18.2°
Maximum altitude 18:22:04 25° 206° (SSW) 1,415 7.2 -19.2°
Drops below altitude 10° 18:26:13 10° 152° (SSE) 2,164 7.6 -20.1°
Enters shadow 18:28:05 - 142° (SE) 2,765 8.0 -20.5°
